Terug naar catalogus

ONEWEB-0526

ActiefCommunicatiePO
NORAD 54144·PAYLOAD·🇬🇧 United Kingdom

Gelanceerd Oct 22, 2022 vanaf Satish Dhawan Space Centre

Loading…

Volgende Passages (komende 24 uur)

TLE

VersSource: CelesTrak SupGP

Epoch: Sep 14, 2026, 18:11 UTC

1 54144C 22138AH  26257.75817546 -.00002898  00000+0 -72482-2 0  2579
2 54144  87.9111 287.1263 0001887  90.2006  23.6563 13.19726530    10

Volg ONEWEB-0526 in realtime met AllMySat

Download on the App Store